Weather History for PAEN - October, 2012

Change the Weather History Date:

Tuesday, October 16, 2012

  Actual Average Record
Temperature  
Mean Temperature 30 °F -  
Max Temperature 33 °F 42 °F 54 °F (1972)
Min Temperature 28 °F 28 °F 0 °F (1996)
Degree Days  
Heating Degree Days 35    
Moisture  
Dew Point 28 °F    
Average Humidity 92    
Maximum Humidity 100    
Minimum Humidity 75    
Precipitation  
Precipitation 0.19 in - - ()
Sea Level Pressure  
Sea Level Pressure 29.31 in    
Wind  
Wind Speed 4 mph (NE)    
Max Wind Speed 14 mph    
Max Gust Speed -    
Visibility 4 miles    
Events Fog , Snow    
Averages and records for this station are not official NWS values.
T = Trace of Precipitation, MM = Missing Value Source: NWS Daily Summary

Daily Weather History Graph

Daily Weather History Graph

Search for Another Location

Airport or City:

Trip Planner

Search our weather history database for the weather conditions in past years. The results will help you decide how hot, cold, wet, or windy it might be!

Date:

Astronomy

Oct. 16, 2012 Rise Set
Actual Time 8:50 AM AKDT 6:49 PM AKDT
Civil Twilight 8:06 AM AKDT 7:32 PM AKDT
Nautical Twilight 7:17 AM AKDT 8:21 PM AKDT
Astronomical Twilight 6:28 AM AKDT 9:10 PM AKDT
Moon 11:05 AM AKDT (10/16) 6:57 PM AKDT (10/16)
Length of Visible Light 11h 25m
Length of Day
9h 59m
Waxing Crescent, 3% of the Moon is Illuminated
Oct 16
Waxing Crescent
Oct 21
First Quarter
Oct 29
Full
Nov 6
Last Quarter
Nov 13
New

Hourly Weather History & Observations

Time (AKDT) Temp. Windchill Dew Point Humidity Pressure Visibility Wind Dir Wind Speed Gust Speed Precip Events Conditions
12:53 AM 32.0 °F - 28.9 °F 88% 29.13 in 10.0 mi Calm Calm - N/A   Overcast
1:53 AM 32.0 °F 27.5 °F 28.0 °F 85% 29.13 in 10.0 mi SE 4.6 mph - N/A   Overcast
2:53 AM 30.9 °F 27.5 °F 28.9 °F 92% 29.15 in 10.0 mi ESE 3.5 mph - N/A   Overcast
3:53 AM 30.0 °F 25.2 °F 28.0 °F 92% 29.16 in 10.0 mi East 4.6 mph - N/A   Overcast
4:09 AM 30.2 °F 26.7 °F 28.4 °F 93% 29.15 in 4.0 mi ESE 3.5 mph - 0.00 in Snow Light Snow
4:16 AM 30.2 °F - 28.4 °F 93% 29.15 in 6.0 mi Calm Calm - 0.00 in Snow Light Snow
4:53 AM 30.0 °F 26.5 °F 28.0 °F 92% 29.17 in 10.0 mi ESE 3.5 mph - 0.00 in   Overcast
5:09 AM 30.2 °F - 28.4 °F 93% 29.17 in 1.8 mi Calm Calm - 0.00 in Snow Light Snow
5:13 AM 30.2 °F - 28.4 °F 93% 29.17 in 1.2 mi Calm Calm - 0.00 in Snow Light Snow
5:53 AM 28.9 °F - 28.0 °F 96% 29.18 in 1.8 mi Calm Calm - 0.02 in Snow Light Snow
6:03 AM 28.4 °F - 28.4 °F 100% 29.17 in 2.5 mi Calm Calm - 0.00 in Snow Light Snow
6:12 AM 28.4 °F 24.6 °F 28.4 °F 100% 29.17 in 3.0 mi East 3.5 mph - 0.00 in Snow Light Snow
6:26 AM 28.4 °F 24.6 °F 28.4 °F 100% 29.18 in 3.0 mi ENE 3.5 mph - 0.00 in Snow Light Snow
6:53 AM 28.9 °F 25.2 °F 28.0 °F 96% 29.19 in 8.0 mi ENE 3.5 mph - 0.00 in Snow Light Snow
7:50 AM 28.4 °F 23.3 °F 28.4 °F 100% 29.20 in 4.0 mi East 4.6 mph - 0.00 in Snow Light Snow
7:53 AM 28.9 °F 23.9 °F 28.0 °F 96% 29.21 in 5.0 mi East 4.6 mph - 0.00 in Snow Light Snow
8:53 AM 28.9 °F 22.8 °F 27.0 °F 92% 29.22 in 9.0 mi East 5.8 mph - 0.01 in Snow Light Snow
9:48 AM 28.4 °F 24.6 °F 26.6 °F 93% 29.23 in 2.0 mi ESE 3.5 mph - 0.00 in Snow Light Snow
9:53 AM 28.0 °F 21.7 °F 27.0 °F 96% 29.24 in 2.5 mi SE 5.8 mph - 0.00 in Snow Light Snow
10:03 AM 28.4 °F 24.6 °F 26.6 °F 93% 29.24 in 2.5 mi ESE 3.5 mph - 0.00 in Snow Light Snow
10:13 AM 28.4 °F - 26.6 °F 93% 29.24 in 3.0 mi Calm Calm - 0.00 in Snow Light Snow
10:29 AM 28.4 °F 24.6 °F 26.6 °F 93% 29.25 in 1.0 mi East 3.5 mph - 0.00 in Snow Light Snow
10:53 AM 28.0 °F - 27.0 °F 96% 29.26 in 1.0 mi Calm Calm - 0.02 in Snow Light Snow
10:56 AM 28.4 °F - 26.6 °F 93% 29.26 in 0.2 mi Calm Calm - 0.00 in Fog , Snow Snow
11:05 AM 28.4 °F 23.3 °F 26.6 °F 93% 29.26 in 0.5 mi East 4.6 mph - 0.01 in Fog , Snow Snow
11:18 AM 28.4 °F 24.6 °F 26.6 °F 93% 29.26 in 2.0 mi East 3.5 mph - 0.01 in Snow Light Snow
11:27 AM 28.4 °F 19.7 °F 26.6 °F 93% 29.26 in 2.5 mi NNE 9.2 mph - 0.01 in Snow Light Snow
11:32 AM 30.2 °F 22.6 °F 26.6 °F 86% 29.27 in 3.0 mi North 8.1 mph - 0.01 in Snow Light Snow
11:53 AM 30.0 °F 22.4 °F 27.0 °F 88% 29.28 in 4.0 mi NNE 8.1 mph - 0.01 in Snow Light Snow
12:02 PM 30.2 °F 21.9 °F 26.6 °F 86% 29.28 in 1.8 mi North 9.2 mph - 0.00 in Snow Light Snow
12:09 PM 30.2 °F 21.9 °F 26.6 °F 86% 29.28 in 3.0 mi North 9.2 mph - 0.00 in Snow Light Snow
12:18 PM 30.2 °F 22.6 °F 26.6 °F 86% 29.28 in 3.0 mi North 8.1 mph - 0.00 in Snow Light Snow
12:43 PM 30.2 °F 20.2 °F 28.4 °F 93% 29.28 in 2.0 mi North 12.7 mph - 0.00 in Snow Light Snow
12:50 PM 30.2 °F 23.4 °F 28.4 °F 93% 29.29 in 2.0 mi NNE 6.9 mph - 0.00 in Snow Light Snow
12:53 PM 30.0 °F 23.2 °F 27.0 °F 88% 29.30 in 2.0 mi ENE 6.9 mph - 0.00 in Snow Light Snow
1:00 PM 28.4 °F 23.3 °F 28.4 °F 100% 29.29 in 1.5 mi NNE 4.6 mph - 0.00 in Snow Light Snow
1:08 PM 30.2 °F 26.7 °F 28.4 °F 93% 29.29 in 3.0 mi NE 3.5 mph - 0.00 in Snow Light Snow
1:16 PM 30.2 °F 22.6 °F 28.4 °F 93% 29.29 in 1.5 mi North 8.1 mph - 0.00 in Snow Light Snow
1:27 PM 30.2 °F 21.3 °F 28.4 °F 93% 29.30 in 2.0 mi NNE 10.4 mph - 0.00 in Snow Light Snow
1:30 PM 30.2 °F 21.3 °F 28.4 °F 93% 29.30 in 2.5 mi North 10.4 mph - 0.00 in Snow Light Snow
1:37 PM 30.2 °F 21.3 °F 28.4 °F 93% 29.30 in 1.5 mi NNE 10.4 mph - 0.00 in Snow Light Snow
1:53 PM 30.0 °F 21.7 °F 28.0 °F 92% 29.31 in 1.0 mi North 9.2 mph - 0.00 in Snow Light Snow
2:01 PM 30.2 °F 23.4 °F 28.4 °F 93% 29.30 in 4.0 mi North 6.9 mph - 0.00 in Snow Light Snow
2:38 PM 32.0 °F 22.5 °F 26.6 °F 80% 29.30 in 10.0 mi North 12.7 mph - 0.00 in Snow Light Snow
2:53 PM 32.0 °F 22.1 °F 26.1 °F 79% 29.31 in 10.0 mi North 13.8 mph - 0.00 in   Overcast
3:53 PM 32.0 °F 24.8 °F 26.1 °F 79% 29.33 in 10.0 mi NNE 8.1 mph - 0.01 in   Overcast
4:14 PM 32.0 °F 27.5 °F 24.8 °F 75% 29.32 in 10.0 mi NE 4.6 mph - N/A   Overcast
4:53 PM 32.0 °F 27.5 °F 27.0 °F 82% 29.34 in 10.0 mi ENE 4.6 mph - N/A   Overcast
5:53 PM 30.9 °F 27.5 °F 27.0 °F 85% 29.36 in 10.0 mi East 3.5 mph - 0.00 in   Overcast
6:22 PM 30.2 °F 24.3 °F 26.6 °F 86% 29.37 in 2.0 mi East 5.8 mph - 0.00 in Snow Light Snow
6:28 PM 30.2 °F 24.3 °F 26.6 °F 86% 29.37 in 0.8 mi East 5.8 mph - 0.00 in Snow Light Snow
6:53 PM 28.9 °F 25.2 °F 28.0 °F 96% 29.39 in 1.5 mi East 3.5 mph - 0.01 in Snow Light Snow
7:06 PM 28.4 °F - 28.4 °F 100% 29.39 in 2.5 mi Calm Calm - 0.00 in Snow Light Snow
7:18 PM 28.4 °F - 28.4 °F 100% 29.40 in 1.8 mi Calm Calm - 0.00 in Snow Light Snow
7:37 PM 30.2 °F - 28.4 °F 93% 29.41 in 0.8 mi Calm Calm - 0.02 in Snow Light Snow
7:53 PM 30.0 °F - 28.9 °F 96% 29.43 in 0.8 mi Calm Calm - 0.04 in Snow Light Snow
8:49 PM 30.2 °F 26.7 °F 28.4 °F 93% 29.45 in 1.8 mi North 3.5 mph - 0.06 in Snow Light Snow
8:53 PM 30.0 °F - 28.9 °F 96% 29.46 in 3.0 mi Calm Calm - 0.06 in Snow Light Snow
9:05 PM 30.2 °F 24.3 °F 28.4 °F 93% 29.46 in 2.0 mi ENE 5.8 mph - 0.00 in Snow Light Snow
9:12 PM 30.2 °F 25.4 °F 28.4 °F 93% 29.46 in 1.8 mi NNE 4.6 mph - 0.00 in Snow Light Snow
9:19 PM 30.2 °F 25.4 °F 28.4 °F 93% 29.46 in 3.0 mi North 4.6 mph - 0.00 in Snow Light Snow
9:28 PM 30.2 °F 24.3 °F 28.4 °F 93% 29.46 in 9.0 mi North 5.8 mph - 0.00 in   Overcast
9:53 PM 30.0 °F 22.4 °F 28.0 °F 92% 29.48 in 10.0 mi North 8.1 mph - 0.00 in   Overcast
10:40 PM 30.2 °F 24.3 °F 28.4 °F 93% 29.50 in 2.5 mi North 5.8 mph - 0.00 in Snow Light Snow
10:53 PM 30.0 °F 23.2 °F 28.9 °F 96% 29.52 in 1.8 mi NNE 6.9 mph - 0.00 in Snow Light Snow
11:10 PM 30.2 °F 26.7 °F 28.4 °F 93% 29.51 in 1.5 mi NNE 3.5 mph - 0.01 in Snow Light Snow
11:19 PM 30.2 °F 26.7 °F 28.4 °F 93% 29.52 in 1.8 mi NNE 3.5 mph - 0.01 in Snow Light Snow
11:41 PM 30.2 °F 26.7 °F 30.2 °F 100% 29.53 in 2.0 mi NNE 3.5 mph - 0.01 in Snow Light Snow
11:53 PM 30.0 °F 26.5 °F 30.0 °F 100% 29.55 in 2.5 mi North 3.5 mph - 0.01 in Snow Light Snow